GW5679 Weather Reports


Display with metric or nautical units.
time (UTC)temp
F
wind
direction
speed
MPH
gust
MPH
rain 1hr
in
rain 24hr
in
rain mn
in
humidity
%
barometer
mb
20260504234344 78 188 9.0 13.0 0.00 0.00 0.00 63 1009.5
20260504233840 78 182 10.0 13.0 0.00 0.00 0.00 63 1009.7
20260504233336 78 149 9.0 13.0 0.00 0.00 0.00 63 1009.7
20260504232833 78 188 6.0 11.0 0.00 0.00 0.00 63 1009.7
20260504232330 79 136 10.0 11.0 0.00 0.00 0.00 63 1009.8
20260504231826 79 177 7.0 13.0 0.00 0.00 0.00 63 1009.9
20260504231323 79 140 7.0 14.0 0.00 0.00 0.00 62 1009.8
20260504230819 79 160 8.0 10.0 0.00 0.00 0.00 62 1009.9
20260504230317 79 189 9.0 13.0 0.00 0.00 0.00 62 1009.9
20260504225816 79 172 7.0 13.0 0.00 0.00 0.00 62 1010.0
20260504225312 79 185 8.0 14.0 0.00 0.00 0.00 61 1010.0
20260504224809 80 180 9.0 14.0 0.00 0.00 0.00 60 1010.0
20260504224306 80 207 6.0 10.0 0.00 0.00 0.00 60 1010.0
20260504223802 80 153 9.0 11.0 0.00 0.00 0.00 59 1010.2
20260504223258 79 184 5.0 7.0 0.00 0.00 0.00 59 1009.9
20260504222755 79 196 8.0 14.0 0.00 0.00 0.00 59 1010.2
20260504222252 80 187 11.0 15.0 0.00 0.00 0.00 59 1010.3
20260504221750 80 177 9.0 13.0 0.00 0.00 0.00 59 1010.3
20260504221247 80 171 3.0 9.0 0.00 0.00 0.00 59 1010.5
20260504220743 80 147 8.0 11.0 0.00 0.00 0.00 58 1010.4
20260504220240 80 184 7.0 13.0 0.00 0.00 0.00 58 1010.5
20260504215738 81 202 7.0 9.0 0.00 0.00 0.00 57 1010.5
20260504215234 80 183 4.0 11.0 0.00 0.00 0.00 58 1010.5
20260504214730 80 191 8.0 15.0 0.00 0.00 0.00 57 1010.7
20260504214227 81 173 6.0 11.0 0.00 0.00 0.00 56 1010.6
20260504213723 80 177 10.0 14.0 0.00 0.00 0.00 56 1010.8
20260504213220 81 202 7.0 9.0 0.00 0.00 0.00 55 1010.7
20260504212717 82 136 7.0 9.0 0.00 0.00 0.00 54 1010.6
20260504212214 82 169 7.0 10.0 0.00 0.00 0.00 54 1010.8
20260504211711 82 223 5.0 13.0 0.00 0.00 0.00 54 1010.7
20260504211207 82 191 6.0 8.0 0.00 0.00 0.00 53 1010.9
20260504210705 82 216 8.0 10.0 0.00 0.00 0.00 53 1010.8
20260504210201 83 197 7.0 14.0 0.00 0.00 0.00 52 1010.9
20260504205658 83 162 5.0 8.0 0.00 0.00 0.00 51 1011.2
20260504205155 83 148 4.0 10.0 0.00 0.00 0.00 51 1011.4
20260504204654 82 161 4.0 8.0 0.00 0.00 0.00 52 1011.3
20260504204153 83 173 9.0 15.0 0.00 0.00 0.00 50 1011.3
20260504203651 82 152 3.0 8.0 0.00 0.00 0.00 51 1011.2
20260504203148 83 181 7.0 13.0 0.00 0.00 0.00 51 1011.3
20260504202643 83 198 2.0 6.0 0.00 0.00 0.00 52 1011.4
20260504202140 83 207 9.0 9.0 0.00 0.00 0.00 49 1011.4
20260504201637 83 187 11.0 13.0 0.00 0.00 0.00 50 1011.8
20260504201135 83 152 8.0 16.0 0.00 0.00 0.00 50 1011.7
20260504200631 85 225 6.0 11.0 0.00 0.00 0.00 48 1011.7
20260504200128 83 170 3.0 9.0 0.00 0.00 0.00 50 1011.8
20260504195624 83 220 5.0 6.0 0.00 0.00 0.00 50 1011.9
20260504195120 82 184 8.0 13.0 0.00 0.00 0.00 50 1011.8
20260504194617 83 221 3.0 8.0 0.00 0.00 0.00 50 1012.1
20260504194113 83 194 7.0 11.0 0.00 0.00 0.00 50 1012.2
20260504193609 83 172 3.0 9.0 0.00 0.00 0.00 50 1011.9
20260504193108 84 184 4.0 9.0 0.00 0.00 0.00 47 1012.0
20260504192606 83 181 6.0 10.0 0.00 0.00 0.00 49 1012.1
20260504192104 83 166 8.0 10.0 0.00 0.00 0.00 49 1012.3
20260504191602 84 220 3.0 7.0 0.00 0.00 0.00 49 1012.6
20260504191057 83 165 5.0 6.0 0.00 0.00 0.00 48 1012.4
20260504190554 82 209 6.0 10.0 0.00 0.00 0.00 50 1012.5
20260504190050 83 212 9.0 10.0 0.00 0.00 0.00 49 1012.5
20260504185547 83 213 6.0 10.0 0.00 0.00 0.00 48 1012.5
20260504185044 82 164 6.0 8.0 0.00 0.00 0.00 49 1012.7
20260504184539 82 184 4.0 11.0 0.00 0.00 0.00 50 1012.7
20260504184035 83 183 7.0 9.0 0.00 0.00 0.00 48 1012.8
20260504183532 82 225 7.0 11.0 0.00 0.00 0.00 49 1012.7
20260504183030 82 140 11.0 13.0 0.00 0.00 0.00 49 1012.6
20260504182527 82 144 6.0 15.0 0.00 0.00 0.00 50 1012.9
20260504182024 82 243 4.0 11.0 0.00 0.00 0.00 49 1012.8
20260504181521 82 159 4.0 11.0 0.00 0.00 0.00 49 1012.8
20260504181020 82 193 4.0 8.0 0.00 0.00 0.00 49 1013.1
20260504180518 83 202 7.0 9.0 0.00 0.00 0.00 47 1013.1
20260504180017 83 193 2.0 7.0 0.00 0.00 0.00 48 1013.3
20260504175513 82 223 8.0 11.0 0.00 0.00 0.00 49 1013.4
20260504175010 82 207 6.0 14.0 0.00 0.00 0.00 49 1013.3
20260504174508 82 156 8.0 13.0 0.00 0.00 0.00 49 1013.2
20260504174005 82 168 4.0 8.0 0.00 0.00 0.00 49 1013.6
20260504173501 82 218 5.0 8.0 0.00 0.00 0.00 49 1013.4
20260504172959 80 192 4.0 7.0 0.00 0.00 0.00 52 1013.5
20260504172454 80 191 4.0 11.0 0.00 0.00 0.00 51 1013.6
20260504171951 80 199 6.0 14.0 0.00 0.00 0.00 52 1013.7
20260504171449 79 229 4.0 9.0 0.00 0.00 0.00 53 1013.7
20260504170945 80 168 4.0 10.0 0.00 0.00 0.00 51 1013.8
20260504170441 80 122 8.0 13.0 0.00 0.00 0.00 50 1014.1
20260504160401 78 191 10.0 13.0 0.00 0.00 0.00 56 1015.0
20260504150825 75 148 6.0 8.0 0.00 0.00 0.00 60 1014.9
20260504150322 75 122 9.0 14.0 0.00 0.00 0.00 60 1014.8
20260504141252 73 164 4.0 7.0 0.00 0.00 0.00 60 1015.0
20260504140749 72 127 5.0 9.0 0.00 0.00 0.00 60 1015.0
20260504140244 72 144 5.0 9.0 0.00 0.00 0.00 60 1014.8
20260504130713 68 110 2.0 4.0 0.00 0.00 0.00 66 1014.7
20260504130209 67 152 4.0 6.0 0.00 0.00 0.00 66 1014.8
20260504120133 64 156 3.0 3.0 0.00 0.00 0.00 71 1014.4
20260504110600 63 146 2.0 4.0 0.00 0.00 0.00 72 1014.3
20260504100522 63 150 1.0 2.0 0.00 0.00 0.00 72 1014.6
20260504081915 65 142 2.0 2.0 0.00 0.00 0.00 64 1015.2
20260504081412 65 179 1.0 3.0 0.00 0.00 0.00 64 1015.2
20260504080908 65 165 1.0 2.0 0.00 0.00 0.00 64 1015.6
20260504080405 65 152 2.0 3.0 0.00 0.00 0.00 64 1015.6
20260504070333 65 176 1.0 4.0 0.00 0.00 0.00 63 1016.4
20260504050721 66 164 3.0 4.0 0.00 0.00 0.00 63 1017.3
20260504050218 66 168 2.0 4.0 0.00 0.00 0.00 62 1017.1
20260504045715 66 157 4.0 7.0 0.00 0.00 0.00 62 1017.3
20260504045215 66 138 3.0 7.0 0.00 0.00 0.00 61 1017.4
20260504044713 66 166 2.0 4.0 0.00 0.00 0.00 61 1017.4
20260504044210 66 189 4.0 4.0 0.00 0.00 0.00 60 1017.5
20260504043707 67 200 2.0 3.0 0.00 0.00 0.00 60 1017.6
20260504043204 67 180 2.0 3.0 0.00 0.00 0.00 59 1017.3
20260504042702 67 165 3.0 4.0 0.00 0.00 0.00 59 1017.6
20260504042158 67 188 4.0 4.0 0.00 0.00 0.00 59 1017.4
20260504041654 67 195 5.0 6.0 0.00 0.00 0.00 58 1017.6
20260504041150 67 166 3.0 6.0 0.00 0.00 0.00 58 1017.5
20260504040647 67 147 4.0 4.0 0.00 0.00 0.00 58 1017.3
20260504040144 68 186 2.0 3.0 0.00 0.00 0.00 58 1017.4
20260504035641 68 194 3.0 6.0 0.00 0.00 0.00 57 1017.4
20260504035137 68 177 2.0 3.0 0.00 0.00 0.00 58 1017.3
20260504034635 68 164 3.0 6.0 0.00 0.00 0.00 57 1017.4
20260504034132 68 164 4.0 6.0 0.00 0.00 0.00 57 1017.8
20260504033629 68 169 1.0 4.0 0.00 0.00 0.00 57 1017.5
20260504033127 68 150 2.0 6.0 0.00 0.00 0.00 56 1017.5
20260504032624 69 189 5.0 7.0 0.00 0.00 0.00 56 1017.4
20260504032121 69 157 4.0 7.0 0.00 0.00 0.00 56 1017.4
20260504031618 69 214 3.0 6.0 0.00 0.00 0.00 55 1017.4
20260504031114 69 195 5.0 8.0 0.00 0.00 0.00 55 1017.6
20260504030611 70 179 3.0 6.0 0.00 0.00 0.00 53 1017.3
20260504030108 70 165 5.0 9.0 0.00 0.00 0.00 52 1017.2
20260504025604 70 155 2.0 7.0 0.00 0.00 0.00 52 1017.2
20260504025101 70 143 4.0 8.0 0.00 0.00 0.00 52 1017.1
20260504024558 70 150 3.0 8.0 0.00 0.00 0.00 52 1017.2
20260504024055 71 163 5.0 6.0 0.00 0.00 0.00 52 1017.2
20260504023552 71 123 4.0 7.0 0.00 0.00 0.00 51 1017.1
20260504023048 71 153 3.0 6.0 0.00 0.00 0.00 51 1017.2
20260504022543 71 143 3.0 4.0 0.00 0.00 0.00 51 1017.2
20260504022040 71 150 8.0 9.0 0.00 0.00 0.00 50 1017.0
20260504021538 71 135 4.0 10.0 0.00 0.00 0.00 50 1016.9
20260504021034 71 130 3.0 8.0 0.00 0.00 0.00 50 1016.8
20260504020531 71 157 6.0 8.0 0.00 0.00 0.00 50 1017.1
20260504020028 71 156 9.0 14.0 0.00 0.00 0.00 49 1016.9
20260504015524 72 155 6.0 8.0 0.00 0.00 0.00 49 1017.1
20260504015020 72 179 6.0 10.0 0.00 0.00 0.00 48 1017.1
20260504014516 72 165 6.0 8.0 0.00 0.00 0.00 48 1016.9
20260504014014 72 153 7.0 10.0 0.00 0.00 0.00 47 1017.0
20260504013512 73 196 5.0 14.0 0.00 0.00 0.00 47 1016.9
20260504013009 73 146 2.0 8.0 0.00 0.00 0.00 46 1016.9
20260504012506 73 178 6.0 11.0 0.00 0.00 0.00 46 1016.9
20260504012004 73 127 5.0 7.0 0.00 0.00 0.00 45 1016.7
20260504011500 73 164 4.0 9.0 0.00 0.00 0.00 45 1016.7
20260504010955 73 127 8.0 13.0 0.00 0.00 0.00 44 1016.8
20260504010452 73 182 5.0 13.0 0.00 0.00 0.00 44 1016.9
20260504005948 74 150 7.0 10.0 0.00 0.00 0.00 44 1016.8
20260504005445 74 212 6.0 8.0 0.00 0.00 0.00 44 1016.7
20260504004943 74 179 10.0 13.0 0.00 0.00 0.00 43 1016.8
20260504004440 74 194 7.0 10.0 0.00 0.00 0.00 43 1016.7
20260504003937 75 133 9.0 11.0 0.00 0.00 0.00 42 1016.8
20260504003433 75 170 6.0 13.0 0.00 0.00 0.00 42 1016.7
20260504002930 75 182 6.0 10.0 0.00 0.00 0.00 41 1016.6
20260504002427 75 112 3.0 7.0 0.00 0.00 0.00 41 1016.6
20260504001924 76 143 5.0 9.0 0.00 0.00 0.00 40 1016.7
20260504001422 76 144 6.0 10.0 0.00 0.00 0.00 40 1016.6
20260504000918 77 152 3.0 9.0 0.00 0.00 0.00 40 1016.7
20260504000416 77 157 4.0 8.0 0.00 0.00 0.00 39 1016.6
20260503235913 77 148 10.0 11.0 0.00 0.00 0.00 39 1016.6
20260503235410 77 160 5.0 8.0 0.00 0.00 0.00 39 1016.8
20260503234908 77 173 5.0 9.0 0.00 0.00 0.00 38 1016.7